{"data":{"norad_id":43647,"intl_designator":"2018-078A","name":"BEIDOU-3 M16 (C35)","alt_names":[],"object_type":"PAYLOAD","status":"ACTIVE","operator":null,"country":"PRC","launch_date":"2018-10-15","launch_site_code":"XICLF","launch_vehicle":null,"mission":null,"orbit_class":"UNKNOWN","rcs_meters":null,"size_class":null,"mass_kg":null,"dimensions":null,"purposes":["nav"],"wikipedia_slug":null,"has_3d_model":false,"image_url":null,"decayed_at":null,"tle_current":{"epoch":"2026-05-24T09:27:16.437600Z","epoch_age_seconds":134390,"freshness":"FRESH","line1":"1 43647U 18078A   26144.39394025 -.00000083  00000+0  00000+0 0  9990","line2":"2 43647  54.1126 300.8196 0007675  40.4072 319.6276  1.86232305 51712","mean_motion":1.86232305,"eccentricity":0.0007675,"inclination_deg":54.1126,"raan_deg":300.8196,"arg_perigee_deg":40.4072,"mean_anomaly_deg":319.6276,"bstar":0,"rev_number":5171,"period_min":773.22782424886,"perigee_km":21506.50329794,"apogee_km":21549.339097274,"semimajor_km":27906.058197607,"source":"CELESTRAK","updated_at":"2026-05-25T13:38:24.220202Z"}}}